Regional Weather Roundup
Issued by NWS Charleston, SC

Current Version | Previous Version | Graphics & Text | Print | Product List | Glossary On
Versions: 1 2 3 4 5 6 7 8 9 10 11 12 13 14 15 16 17 18 19 20 21 22 23 24 25 26 27 28 29 30 31 32 33 34 35 36 37 38 39 40 41 42 43 44 45 46 47 48 49 50
000 ASUS42 KCHS 240010 RWRCHS REGIONAL WEATHER ROUNDUP NATIONAL WEATHER SERVICE CHARLESTON SC 800 PM EDT WED JUL 23 2014 NOTE: "FAIR" INDICATES FEW OR NO CLOUDS BELOW 12,000 FEET WITH NO SIGNIFICANT WEATHER AND/OR OBSTRUCTIONS TO VISIBILITY. NOT ALL STATIONS ARE QUALITY CONTROLLED BY THE NATIONAL WEATHER SERVICE. USE DATA WITH CAUTION...ESPECIALLY DEWPOINT OBSERVATIONS. SCZ027-030-031-034>040-042>050-240100- ...SOUTH CAROLINA... CITY SKY/WX TMP DP RH WIND PRES REMARKS N CHARLESTON MOCLDY 84 76 76 SW8 29.98F HX 93 6HR MIN TEMP: 78; 6HR MAX TEMP: 94; 6HR PCP: 0.29; WATERFRONT PRK N/A 82 N/A N/A S10 N/A FORT JOHNSON NOT AVBL MOUNT PLEASANT FAIR 82 75 78 S7 29.98F JOHNS ISLAND CLEAR 84 70 61 S6 29.99S PINOPOLIS N/A 90 75 62 S6 29.91F HX 100 MONCKS CORNER N/A 84 77 79 S7 29.98S HX 94 SUMMERVILLE FAIR 82 73 74 CALM 29.99S BEAUFORT MCAS MOCLDY 85 75 72 SW8 29.98S HX 93 6HR MIN TEMP: 85; 6HR MAX TEMP: 93; BEAUFORT ARPT FAIR 82 77 83 S6 29.98S HX 91 HILTON HEAD IS CLEAR 84 75 74 SE9 30.00F HX 92 GEORGETOWN NOT AVBL WALTERBORO CLEAR 82 72 69 SE6 29.98F ORANGEBURG CLEAR 86 72 62 S3 29.96F HX 92 6HR MIN TEMP: 86; 6HR MAX TEMP: 92; BARNWELL FAIR 88 72 58 SW3 29.97S HX 94 AIKEN FAIR 81 73 78 W14 30.03R MANNING FAIR 86 73 66 S3 29.96S HX 93 KINGSTREE NOT AVBL COLUMBIA PTCLDY 89 70 53 SW10 29.95F HX 94 6HR MIN TEMP: 89; 6HR MAX TEMP: 94; SUMTER CLEAR 86 74 67 S6 29.94F HX 94 6HR MIN TEMP: 86; 6HR MAX TEMP: 92; FLORENCE PTCLDY 85 75 72 S12 29.95F HX 93 6HR MIN TEMP: 85; 6HR MAX TEMP: 93; MYRTLE BEACH CLEAR 84 75 74 SW7 29.97F HX 92 N MYRTLE BEACH MOCLDY 83 74 74 SW14 29.96F 6HR MIN TEMP: 81; 6HR MAX TEMP: 86; 6HR PCP: 0.01; $$ GAZ063-065-086>088-099>101-113>116-118-119-134-136>141-150-240100- ...GEORGIA... CITY SKY/WX TMP DP RH WIND PRES REMARKS SAVANNAH ARPT MOCLDY 85 75 72 S9 29.98F HX 93 6HR MIN TEMP: 85; 6HR MAX TEMP: 94; HUNTER AAF PTCLDY 84 76 76 SE9 29.97F HX 92 6HR MIN TEMP: 84; 6HR MAX TEMP: 89; FORT STEWART CLEAR 85 75 72 S8 29.97S HX 94 6HR MIN TEMP: 85; 6HR MAX TEMP: 92; STATESBORO NOT AVBL SYLVANIA CLEAR 87 78 72 CALM 29.98S HX 100 CLAXTON FAIR 86 81 84 CALM 29.97S HX 102 THOMSON CLEAR 86 79 78 CALM 30.03R HX 100 AUGUSTA-BUSH PTCLDY 85 72 65 S5 29.96R HX 91 6HR MIN TEMP: 85; 6HR MAX TEMP: 92; AUGUSTA-DANIEL PTCLDY 83 73 72 W5 29.99R SWAINSBORO FAIR 90 73 58 CALM 29.98S HX 98 VIDALIA N/A 88 70 55 SW5 29.98S HX 92 ALMA CLEAR 89 66 46 SW5 29.97S HX 91 6HR MIN TEMP: 89; 6HR MAX TEMP: 96; WAYCROSS CLEAR 93 74 54 SW3 29.97S HX 103 JESUP NOT AVBL BRUNSWICK MOCLDY 86 73 66 CALM 30.00S HX 93 SAINT SIMONS PTCLDY 84 75 74 SE8 29.99F HX 92 6HR MIN TEMP: 84; 6HR MAX TEMP: 89; $$ SCZ027-028-034-036>038-045-046-048>050-GAZ119-141-240100- ...LAKE AND SUPPLEMENTAL COASTAL OBSERVATIONS... STATION/POSITION TIME TEMP WIND PRES WAVE SWELL AIR SEA DIR/SP/G HT/PER HT/PER/DIR (UTC) (F) (DEG/KT/KT) (MB) (FT/S) (FT/S/D) UPR LAKE MARION NOT AVBL WINYAH BAY 2300 80 220/ 6 1015.0S LAKE MURRAY 2300 88 220/ 8/ 11 1013.9S ACE BASIN NERRS 2300 85 CALM 1016.0S FORT PULASKI 0000 84 160/ 6/ 10 1015.7F SAPELO ISLAND 2300 88 170/ 11 1017.0S $$ ANZ835-935-AMZ111-154-330-350-352-354-374-450-454-472-240100- ...C-MAN AND BUOY OBSERVATIONS... STATION/POSITION TIME TEMP WIND PRES WAVE SWELL AIR SEA DIR/SP/G HT/PER HT/PER/DIR (UTC) (F) (DEG/KT/KT) (MB) (FT/S) (FT/S/D) FOLLY BEACH CMAN 2300 83 200/ 10/ 11 1016.1F BUOY 41004 0000 82 83 200/ 10/ 12 1015.1F 3/ 6 3/ 6 BUOY 41008 0000 84 85 160/ 12/ 16 1015.4F 2/ 8 2/100/ 8 5E ST. MARYS GA 0000 84 N/A 2/ 7 FRYING PAN BUOY NOT AVBL BUOY 41025 0000 VRB 17/ 21 1013.4S 4/ 4 2/160/ 7 CAPE LOOKOUT NC 2300 80 220/ 12/ 15 1014.5F BUOY 41002 2249 82 82 220/ 16/ 19 1018.6S 4/ 5 2/120/ 8 BUOY 41010 0000 81 84 160/ 10/ 12 1017.7R 3/ 5 3/150/ 5 BUOY 41012 NOT AVBL ST AUGUSTINE FL 0000 83 160/ 15/ 16 1016.7S CAPERS NEARSHORE 2300 82 210/ 12/ 14 N/A FRIPP NEARSHORE NOT AVBL $$

USA.gov is the U.S. government's official web portal to all federal, state and local government web resources and services.